Prestwick, United Kingdom

12:37 AM BST on March 27, 2017 (GMT +0100)
Prestwick

Weather History for EGPK - November, 2013

Change the Weather History Date:

Tuesday, November 19, 2013

  Actual Average Record
Temperature  
Mean Temperature 35 °F -  
Max Temperature 46 °F 45 °F 57 °F (2003)
Min Temperature 26 °F 35 °F 24 °F (1999)
Degree Days  
Heating Degree Days 30    
Moisture  
Dew Point 32 °F    
Average Humidity 80    
Maximum Humidity 93    
Minimum Humidity 61    
Precipitation  
Precipitation 0.00 in - - ()
Sea Level Pressure  
Sea Level Pressure 29.92 in    
Wind  
Wind Speed 5 mph ()    
Max Wind Speed 23 mph    
Max Gust Speed 36 mph    
Visibility 6.2 miles    
Events Rain    
Averages and records for this station are not official NWS values.
T = Trace of Precipitation, MM = Missing Value Source: Averaged Metar Reports

Daily Weather History Graph

Daily Weather History Graph

Search for Another Location

Airport or City:

Trip Planner

Search our weather history database for the weather conditions in past years. The results will help you decide how hot, cold, wet, or windy it might be!

Date:

Astronomy

Nov. 19, 2013 Rise Set
Actual Time 8:00 AM GMT 4:06 PM GMT
Civil Twilight 7:18 AM GMT 4:48 PM GMT
Nautical Twilight 6:32 AM GMT 5:34 PM GMT
Astronomical Twilight 5:49 AM GMT 6:17 PM GMT
Moon 5:41 PM GMT (11/19) 9:32 AM GMT (11/19)
Length of Visible Light 9h 30m
Length of Day
8h 05m
Full, 97% of the Moon is Illuminated
Nov 19
Full
Nov 25
Last Quarter
Dec 3
New
Dec 9
First Quarter
Dec 17
Full

Hourly Weather History & Observations

Time (GMT) Temp. Windchill Dew Point Humidity Pressure Visibility Wind Dir Wind Speed Gust Speed Precip Events Conditions
12:50 AM 35.6 °F 29.9 °F 32.0 °F 87% 29.83 in 6.2 mi NW 6.9 mph - N/A   Mostly Cloudy
1:50 AM 33.8 °F - 30.2 °F 87% 29.83 in 6.2 mi NW 2.3 mph - N/A   Scattered Clouds
2:50 AM 32.0 °F - 28.4 °F 87% 29.83 in 6.2 mi Calm Calm - N/A   Scattered Clouds
3:50 AM 32.0 °F - 28.4 °F 87% 29.83 in 6.2 mi Calm Calm - N/A   Scattered Clouds
4:50 AM 30.2 °F - 26.6 °F 86% 29.86 in 6.2 mi Calm Calm - N/A   Scattered Clouds
5:50 AM 30.2 °F - 26.6 °F 86% 29.89 in 6.2 mi NW 2.3 mph - N/A   Scattered Clouds
6:20 AM 30.2 °F - 26.6 °F 86% 29.89 in 6.2 mi Calm Calm - N/A   Scattered Clouds
6:50 AM 28.4 °F - 26.6 °F 93% 29.92 in 6.2 mi Calm Calm - N/A   Partly Cloudy
7:20 AM 28.4 °F - 24.8 °F 86% 29.95 in 6.2 mi Calm Calm - N/A   Partly Cloudy
7:50 AM 28.4 °F - 24.8 °F 86% 29.98 in 6.2 mi Calm Calm - N/A   Partly Cloudy
8:20 AM 26.6 °F - 24.8 °F 93% 29.98 in 6.2 mi Calm Calm - N/A   Partly Cloudy
8:50 AM 28.4 °F - 26.6 °F 93% 30.01 in 6.2 mi NW 2.3 mph - N/A   Partly Cloudy
9:20 AM 28.4 °F - 26.6 °F 93% 30.01 in 6.2 mi Variable 2.3 mph - N/A   Partly Cloudy
9:50 AM 32.0 °F - 28.4 °F 87% 30.04 in 6.2 mi Calm Calm - N/A   Partly Cloudy
10:20 AM 33.8 °F - 30.2 °F 87% 30.04 in 6.2 mi Calm Calm - N/A   Partly Cloudy
10:50 AM 35.6 °F - 30.2 °F 81% 30.04 in 6.2 mi North 2.3 mph - N/A   Partly Cloudy
11:20 AM 39.2 °F - 32.0 °F 75% 30.04 in 6.2 mi Calm Calm - N/A   Partly Cloudy
11:50 AM 39.2 °F - 30.2 °F 70% 30.04 in 6.2 mi Variable 2.3 mph - N/A   Partly Cloudy
12:20 PM 39.2 °F 32.5 °F 30.2 °F 70% 30.04 in 6.2 mi NW 10.4 mph - N/A   Partly Cloudy
12:50 PM 41.0 °F 35.2 °F 30.2 °F 65% 30.04 in 6.2 mi NW 9.2 mph - N/A   Partly Cloudy
1:20 PM 39.2 °F 35.9 °F 30.2 °F 70% 30.04 in 6.2 mi NNW 4.6 mph - N/A   Partly Cloudy
1:50 PM 39.2 °F - 30.2 °F 70% 30.04 in 6.2 mi Calm Calm - N/A   Partly Cloudy
2:20 PM 41.0 °F 39.0 °F 30.2 °F 65% 30.04 in 6.2 mi Variable 3.5 mph - N/A   Partly Cloudy
2:50 PM 41.0 °F 36.4 °F 28.4 °F 61% 30.04 in 6.2 mi West 6.9 mph - N/A   Partly Cloudy
3:20 PM 41.0 °F 35.8 °F 28.4 °F 61% 30.01 in 6.2 mi West 8.1 mph - N/A   Partly Cloudy
3:50 PM 39.2 °F 33.6 °F 28.4 °F 65% 30.01 in 6.2 mi West 8.1 mph - N/A   Partly Cloudy
4:20 PM 39.2 °F 34.2 °F 30.2 °F 70% 30.01 in 6.2 mi SW 6.9 mph - N/A   Partly Cloudy
4:50 PM 37.4 °F 32.1 °F 30.2 °F 75% 29.98 in 6.2 mi South 6.9 mph - N/A   Partly Cloudy
5:20 PM 37.4 °F 32.1 °F 30.2 °F 75% 29.98 in 6.2 mi South 6.9 mph - N/A   Partly Cloudy
5:50 PM 39.2 °F 33.0 °F 30.2 °F 70% 29.95 in 6.2 mi SSW 9.2 mph - N/A   Scattered Clouds
6:20 PM 41.0 °F 33.5 °F 33.8 °F 76% 29.95 in 6.2 mi WSW 13.8 mph - N/A   Scattered Clouds
6:50 PM 42.8 °F 34.8 °F 33.8 °F 70% 29.92 in 6.2 mi SW 17.3 mph 28.8 mph N/A   Scattered Clouds
7:20 PM 41.0 °F 33.5 °F 35.6 °F 81% 29.89 in 6.2 mi SSW 13.8 mph - N/A Rain Light Rain
7:50 PM 42.8 °F 34.0 °F 37.4 °F 81% 29.86 in 6.2 mi SW 20.7 mph - N/A Rain Light Rain
8:20 PM 41.0 °F 31.9 °F 37.4 °F 87% 29.83 in 6.2 mi SSW 19.6 mph - N/A Rain Light Rain
8:50 PM 42.8 °F 34.3 °F 39.2 °F 87% 29.83 in 6.2 mi SW 19.6 mph - N/A Rain Light Rain
9:20 PM 42.8 °F 33.5 °F 41.0 °F 93% 29.77 in 6.2 mi SW 23.0 mph 35.7 mph N/A Rain Light Rain
9:50 PM 44.6 °F 36.1 °F 41.0 °F 87% 29.77 in 6.2 mi SW 21.9 mph 33.4 mph N/A Rain Light Rain
10:20 PM 44.6 °F 36.4 °F 41.0 °F 87% 29.74 in 6.2 mi WSW 20.7 mph - N/A Rain Light Rain
10:50 PM 44.6 °F 37.2 °F 42.8 °F 93% 29.71 in 6.2 mi WSW 17.3 mph - N/A   Mostly Cloudy
11:20 PM 44.6 °F 37.4 °F 41.0 °F 87% 29.71 in 6.2 mi West 16.1 mph - N/A Rain Light Rain
11:50 PM 46.4 °F 39.2 °F 41.0 °F 81% 29.68 in 6.2 mi WSW 18.4 mph - N/A Rain Light Rain